Time,TemperatureF,DewpointF,PressureIn,WindDirection,WindDirectionDegrees,WindSpeedMPH,WindSpeedGustMPH,Humidity,HourlyPrecipIn,Conditions,Clouds,dailyrainin,SoftwareType,DateUTC
2013-03-25 00:00:00,34.7,20.6,29.44,WNW,289,0.0,0.0,56,0.00,,,0.00,VWS V14.01,2013-03-25 04:00:00,
2013-03-25 00:05:00,34.7,20.6,29.44,WNW,289,0.0,0.0,56,0.00,,,0.00,VWS V14.01,2013-03-25 04:05:00,
2013-03-25 00:10:00,34.9,20.4,29.44,WNW,289,0.0,0.0,55,0.00,,,0.00,VWS V14.01,2013-03-25 04:10:00,
2013-03-25 00:15:00,34.7,20.2,29.44,WNW,289,0.0,0.0,55,0.00,,,0.00,VWS V14.01,2013-03-25 04:15:00,
2013-03-25 00:20:00,34.9,20.4,29.44,WNW,289,0.0,0.0,55,0.00,,,0.00,VWS V14.01,2013-03-25 04:20:00,
2013-03-25 00:25:00,34.9,20.4,29.44,WNW,289,0.0,0.0,55,0.00,,,0.00,VWS V14.01,2013-03-25 04:25:00,
2013-03-25 00:30:00,34.9,20.4,29.44,WNW,289,0.0,0.0,55,0.00,,,0.00,VWS V14.01,2013-03-25 04:30:00,
2013-03-25 00:35:00,34.5,20.0,29.44,WNW,289,0.0,0.0,55,0.00,,,0.00,VWS V14.01,2013-03-25 04:35:00,
2013-03-25 00:40:00,34.5,20.0,29.44,WNW,289,0.0,0.0,55,0.00,,,0.00,VWS V14.01,2013-03-25 04:40:00,
2013-03-25 00:45:00,34.5,20.0,29.44,WNW,289,0.0,0.0,55,0.00,,,0.00,VWS V14.01,2013-03-25 04:45:00,
2013-03-25 00:50:00,34.2,19.7,29.44,WNW,289,0.0,0.0,55,0.00,,,0.00,VWS V14.01,2013-03-25 04:50:00,
2013-03-25 00:55:00,34.2,19.7,29.44,WNW,289,0.0,0.0,55,0.00,,,0.00,VWS V14.01,2013-03-25 04:55:00,
2013-03-25 01:00:00,33.8,19.4,29.44,WNW,289,0.0,0.0,55,0.00,,,0.00,VWS V14.01,2013-03-25 05:00:00,
2013-03-25 01:05:00,33.8,19.4,29.44,WNW,289,0.0,0.0,55,0.00,,,0.00,VWS V14.01,2013-03-25 05:05:00,
2013-03-25 01:10:00,33.8,19.4,29.44,WNW,289,0.0,0.0,55,0.00,,,0.00,VWS V14.01,2013-03-25 05:10:00,
2013-03-25 01:15:00,33.4,19.4,29.44,WNW,289,0.0,0.0,56,0.00,,,0.00,VWS V14.01,2013-03-25 05:15:00,
2013-03-25 01:20:00,33.3,19.3,29.44,WNW,289,0.0,0.0,56,0.00,,,0.00,VWS V14.01,2013-03-25 05:20:00,
2013-03-25 01:25:00,33.3,20.1,29.44,WNW,289,0.0,0.0,58,0.00,,,0.00,VWS V14.01,2013-03-25 05:25:00,
2013-03-25 01:30:00,33.3,20.1,29.44,WNW,289,0.0,0.0,58,0.00,,,0.00,VWS V14.01,2013-03-25 05:30:00,
2013-03-25 01:35:00,33.1,19.9,29.44,WNW,289,0.0,0.0,58,0.00,,,0.00,VWS V14.01,2013-03-25 05:35:00,
2013-03-25 01:40:00,33.1,19.9,29.44,WNW,289,0.0,0.0,58,0.00,,,0.00,VWS V14.01,2013-03-25 05:40:00,
2013-03-25 01:45:00,32.9,19.8,29.44,WNW,289,0.0,0.0,58,0.00,,,0.00,VWS V14.01,2013-03-25 05:45:00,
2013-03-25 01:50:00,32.7,20.0,29.44,WNW,289,0.0,0.0,59,0.00,,,0.00,VWS V14.01,2013-03-25 05:50:00,
2013-03-25 01:55:00,32.7,20.0,29.44,WNW,289,0.0,0.0,59,0.00,,,0.00,VWS V14.01,2013-03-25 05:55:00,
2013-03-25 02:00:00,32.7,20.0,29.44,WNW,289,0.0,0.0,59,0.00,,,0.00,VWS V14.01,2013-03-25 06:00:00,
2013-03-25 02:05:00,32.5,20.2,29.44,WNW,289,0.0,0.0,60,0.00,,,0.00,VWS V14.01,2013-03-25 06:05:00,
2013-03-25 02:10:00,32.4,20.0,29.44,WNW,289,0.0,0.0,60,0.00,,,0.00,VWS V14.01,2013-03-25 06:10:00,
2013-03-25 02:15:00,32.2,20.3,29.41,WNW,289,0.0,0.0,61,0.00,,,0.00,VWS V14.01,2013-03-25 06:15:00,
2013-03-25 02:20:00,32.2,20.3,29.41,WNW,289,0.0,0.0,61,0.00,,,0.00,VWS V14.01,2013-03-25 06:20:00,
2013-03-25 02:25:00,32.2,20.3,29.41,WNW,289,0.0,0.0,61,0.00,,,0.00,VWS V14.01,2013-03-25 06:25:00,
2013-03-25 02:30:00,31.8,19.9,29.41,WNW,289,0.0,0.0,61,0.00,,,0.00,VWS V14.01,2013-03-25 06:30:00,
2013-03-25 02:35:00,31.6,19.8,29.41,WNW,289,0.0,0.0,61,0.00,,,0.00,VWS V14.01,2013-03-25 06:35:00,
2013-03-25 02:40:00,31.6,20.1,29.41,WNW,289,0.0,0.0,62,0.00,,,0.00,VWS V14.01,2013-03-25 06:40:00,
2013-03-25 02:45:00,31.5,20.0,29.41,WNW,289,0.0,0.0,62,0.00,,,0.00,VWS V14.01,2013-03-25 06:45:00,
2013-03-25 02:50:00,31.5,20.3,29.41,WNW,289,0.0,0.0,63,0.00,,,0.00,VWS V14.01,2013-03-25 06:50:00,
2013-03-25 02:55:00,31.3,20.2,29.41,WNW,289,0.0,0.0,63,0.00,,,0.00,VWS V14.01,2013-03-25 06:55:00,
2013-03-25 03:00:00,31.3,20.5,29.41,WNW,289,0.0,0.0,64,0.00,,,0.00,VWS V14.01,2013-03-25 07:00:00,
2013-03-25 03:05:00,31.3,20.5,29.41,WNW,289,0.0,0.0,64,0.00,,,0.00,VWS V14.01,2013-03-25 07:05:00,
2013-03-25 03:10:00,31.1,20.4,29.41,WNW,289,0.0,0.0,64,0.00,,,0.00,VWS V14.01,2013-03-25 07:10:00,
2013-03-25 03:15:00,31.1,20.4,29.41,WNW,289,0.0,0.0,64,0.00,,,0.00,VWS V14.01,2013-03-25 07:15:00,
2013-03-25 03:20:00,31.1,20.4,29.41,WNW,289,0.0,0.0,64,0.00,,,0.00,VWS V14.01,2013-03-25 07:20:00,
2013-03-25 03:25:00,30.9,20.2,29.41,WNW,289,0.0,0.0,64,0.00,,,0.00,VWS V14.01,2013-03-25 07:25:00,
2013-03-25 03:30:00,30.9,20.5,29.41,WNW,289,0.0,0.0,65,0.00,,,0.00,VWS V14.01,2013-03-25 07:30:00,
2013-03-25 03:35:00,30.7,20.4,29.41,WNW,289,0.0,0.0,65,0.00,,,0.00,VWS V14.01,2013-03-25 07:35:00,
2013-03-25 03:40:00,30.7,20.4,29.41,WNW,289,0.0,0.0,65,0.00,,,0.00,VWS V14.01,2013-03-25 07:40:00,
2013-03-25 03:45:00,30.7,20.4,29.41,WNW,289,0.0,0.0,65,0.00,,,0.00,VWS V14.01,2013-03-25 07:45:00,
2013-03-25 03:50:00,30.7,20.4,29.41,WNW,289,0.0,0.0,65,0.00,,,0.00,VWS V14.01,2013-03-25 07:50:00,
2013-03-25 03:55:00,30.7,20.4,29.41,WNW,289,0.0,0.0,65,0.00,,,0.00,VWS V14.01,2013-03-25 07:55:00,
2013-03-25 04:00:00,30.6,20.6,29.41,WNW,289,0.0,0.0,66,0.00,,,0.00,VWS V14.01,2013-03-25 08:00:00,
2013-03-25 04:05:00,30.6,20.6,29.41,WNW,289,0.0,0.0,66,0.00,,,0.00,VWS V14.01,2013-03-25 08:05:00,
2013-03-25 04:10:00,30.6,20.6,29.41,WNW,289,0.0,0.0,66,0.00,,,0.00,VWS V14.01,2013-03-25 08:10:00,
2013-03-25 04:15:00,30.6,20.6,29.41,WNW,289,0.0,0.0,66,0.00,,,0.00,VWS V14.01,2013-03-25 08:15:00,
2013-03-25 04:20:00,30.6,20.6,29.41,WNW,289,0.0,0.0,66,0.00,,,0.00,VWS V14.01,2013-03-25 08:20:00,
2013-03-25 04:25:00,30.6,20.9,29.41,WNW,289,0.0,0.0,67,0.00,,,0.00,VWS V14.01,2013-03-25 08:25:00,
2013-03-25 04:30:00,30.4,20.8,29.41,WNW,289,0.0,0.0,67,0.00,,,0.00,VWS V14.01,2013-03-25 08:30:00,
2013-03-25 04:35:00,30.4,20.8,29.41,WNW,289,0.0,0.0,67,0.00,,,0.00,VWS V14.01,2013-03-25 08:35:00,
2013-03-25 04:40:00,30.4,21.1,29.41,WNW,289,0.0,0.0,68,0.00,,,0.00,VWS V14.01,2013-03-25 08:40:00,
2013-03-25 04:45:00,30.2,20.9,29.41,WNW,289,0.0,0.0,68,0.00,,,0.00,VWS V14.01,2013-03-25 08:45:00,
2013-03-25 04:50:00,30.2,20.9,29.41,WNW,289,0.0,0.0,68,0.00,,,0.00,VWS V14.01,2013-03-25 08:50:00,
2013-03-25 04:55:00,30.2,20.9,29.38,WNW,289,0.0,0.0,68,0.00,,,0.00,VWS V14.01,2013-03-25 08:55:00,
2013-03-25 05:00:00,30.0,20.8,29.38,WNW,289,0.0,0.0,68,0.00,,,0.00,VWS V14.01,2013-03-25 09:00:00,
2013-03-25 05:05:00,30.0,20.8,29.38,WNW,289,0.0,0.0,68,0.00,,,0.00,VWS V14.01,2013-03-25 09:05:00,
2013-03-25 05:10:00,30.0,21.1,29.38,WNW,289,0.0,0.0,69,0.00,,,0.00,VWS V14.01,2013-03-25 09:10:00,
2013-03-25 05:15:00,30.0,21.1,29.38,WNW,289,0.0,0.0,69,0.00,,,0.00,VWS V14.01,2013-03-25 09:15:00,
2013-03-25 05:20:00,30.2,21.3,29.38,WNW,289,0.0,0.0,69,0.00,,,0.00,VWS V14.01,2013-03-25 09:20:00,
2013-03-25 05:24:00,30.2,21.6,29.38,WNW,289,0.0,0.0,70,0.00,,,0.00,VWS V14.01,2013-03-25 09:24:00,
2013-03-25 05:29:00,30.2,21.6,29.38,WNW,289,0.0,0.0,70,0.00,,,0.00,VWS V14.01,2013-03-25 09:29:00,
2013-03-25 05:34:00,30.4,21.8,29.38,WNW,289,0.0,0.0,70,0.00,,,0.00,VWS V14.01,2013-03-25 09:34:00,
2013-03-25 05:39:00,30.6,22.0,29.38,WNW,289,0.0,0.0,70,0.00,,,0.00,VWS V14.01,2013-03-25 09:39:00,
2013-03-25 05:44:00,30.6,22.3,29.38,WNW,289,0.0,0.0,71,0.00,,,0.00,VWS V14.01,2013-03-25 09:44:00,
2013-03-25 05:49:00,30.6,22.3,29.38,WNW,289,0.0,0.0,71,0.00,,,0.00,VWS V14.01,2013-03-25 09:49:00,
2013-03-25 05:54:00,30.6,22.3,29.38,WNW,289,0.0,0.0,71,0.00,,,0.00,VWS V14.01,2013-03-25 09:54:00,
2013-03-25 05:59:00,30.4,22.1,29.38,WNW,289,0.0,0.0,71,0.00,,,0.00,VWS V14.01,2013-03-25 09:59:00,
2013-03-25 06:04:00,30.4,22.1,29.38,WNW,289,0.0,0.0,71,0.00,,,0.00,VWS V14.01,2013-03-25 10:04:00,
2013-03-25 06:09:00,30.4,22.1,29.38,WNW,289,0.0,0.0,71,0.00,,,0.00,VWS V14.01,2013-03-25 10:09:00,
2013-03-25 06:14:00,30.2,21.9,29.38,WNW,289,0.0,0.0,71,0.00,,,0.00,VWS V14.01,2013-03-25 10:14:00,
2013-03-25 06:19:00,30.2,21.9,29.38,WNW,289,0.0,0.0,71,0.00,,,0.00,VWS V14.01,2013-03-25 10:19:00,
2013-03-25 06:24:00,30.2,21.9,29.38,WNW,289,0.0,0.0,71,0.00,,,0.00,VWS V14.01,2013-03-25 10:24:00,
2013-03-25 06:29:00,30.2,21.9,29.38,WNW,289,0.0,0.0,71,0.00,,,0.00,VWS V14.01,2013-03-25 10:29:00,
2013-03-25 06:34:00,30.2,21.9,29.38,WNW,289,0.0,0.0,71,0.00,,,0.00,VWS V14.01,2013-03-25 10:34:00,
2013-03-25 06:39:00,30.2,21.9,29.38,WNW,289,0.0,0.0,71,0.00,,,0.00,VWS V14.01,2013-03-25 10:39:00,
2013-03-25 06:44:00,30.2,21.9,29.38,WNW,289,0.0,0.0,71,0.00,,,0.00,VWS V14.01,2013-03-25 10:44:00,
2013-03-25 06:49:00,30.4,22.1,29.38,WNW,289,0.0,0.0,71,0.00,,,0.00,VWS V14.01,2013-03-25 10:49:00,
2013-03-25 06:54:00,30.4,22.1,29.38,WNW,289,0.0,0.0,71,0.00,,,0.00,VWS V14.01,2013-03-25 10:54:00,
2013-03-25 06:59:00,30.6,22.3,29.38,WNW,289,0.0,0.0,71,0.00,,,0.00,VWS V14.01,2013-03-25 10:59:00,
2013-03-25 07:04:00,30.6,22.3,29.38,WNW,289,0.0,0.0,71,0.00,,,0.00,VWS V14.01,2013-03-25 11:04:00,
2013-03-25 07:09:00,30.7,22.5,29.38,WNW,289,0.0,0.0,71,0.00,,,0.00,VWS V14.01,2013-03-25 11:09:00,
2013-03-25 07:14:00,30.9,22.6,29.38,WNW,292,0.0,0.0,71,0.00,,,0.00,VWS V14.01,2013-03-25 11:14:00,
2013-03-25 07:19:00,31.1,22.8,29.38,WNW,292,0.0,0.0,71,0.00,,,0.00,VWS V14.01,2013-03-25 11:19:00,
2013-03-25 07:24:00,31.3,23.0,29.38,WNW,290,0.0,0.0,71,0.00,,,0.00,VWS V14.01,2013-03-25 11:24:00,
2013-03-25 07:29:00,31.6,23.0,29.38,WNW,290,0.0,0.0,70,0.00,,,0.00,VWS V14.01,2013-03-25 11:29:00,
2013-03-25 07:34:00,31.8,23.2,29.38,WNW,290,0.0,0.0,70,0.00,,,0.00,VWS V14.01,2013-03-25 11:34:00,
2013-03-25 07:39:00,32.2,23.5,29.38,WNW,290,0.0,0.0,70,0.00,,,0.00,VWS V14.01,2013-03-25 11:39:00,
2013-03-25 07:44:00,32.5,23.5,29.38,SSW,205,0.0,0.0,69,0.00,,,0.00,VWS V14.01,2013-03-25 11:44:00,
2013-03-25 07:49:00,32.9,23.5,29.38,SSW,203,0.0,0.0,68,0.00,,,0.00,VWS V14.01,2013-03-25 11:49:00,
2013-03-25 07:54:00,33.1,23.3,29.38,SSW,203,0.0,0.0,67,0.00,,,0.00,VWS V14.01,2013-03-25 11:54:00,
2013-03-25 07:59:00,33.6,23.9,29.38,SSW,204,0.0,0.0,67,0.00,,,0.00,VWS V14.01,2013-03-25 11:59:00,
2013-03-25 08:04:00,33.8,23.7,29.38,East,82,0.0,0.0,66,0.00,,,0.00,VWS V14.01,2013-03-25 12:04:00,
2013-03-25 08:09:00,34.7,23.4,29.38,SE,137,0.0,0.0,63,0.00,,,0.00,VWS V14.01,2013-03-25 12:09:00,
2013-03-25 08:14:00,34.7,23.4,29.38,NNE,23,0.0,0.0,63,0.00,,,0.00,VWS V14.01,2013-03-25 12:14:00,
2013-03-25 08:19:00,35.4,22.5,29.38,ESE,102,0.0,0.0,59,0.00,,,0.00,VWS V14.01,2013-03-25 12:19:00,
2013-03-25 08:24:00,35.4,22.1,29.38,South,170,0.0,0.0,58,0.00,,,0.00,VWS V14.01,2013-03-25 12:24:00,
2013-03-25 08:29:00,35.8,21.6,29.38,NE,56,0.0,0.0,56,0.00,,,0.00,VWS V14.01,2013-03-25 12:29:00,
2013-03-25 08:34:00,36.5,22.3,29.38,NE,56,0.0,0.0,56,0.00,,,0.00,VWS V14.01,2013-03-25 12:34:00,
2013-03-25 08:39:00,36.9,21.8,29.38,SSW,198,0.0,0.0,54,0.00,,,0.00,VWS V14.01,2013-03-25 12:39:00,
2013-03-25 08:45:00,37.4,22.3,29.38,ESE,115,0.0,0.0,54,0.00,,,0.00,VWS V14.01,2013-03-25 12:45:00,
2013-03-25 08:49:00,37.4,22.3,29.38,SSE,167,0.0,4.0,54,0.00,,,0.00,VWS V14.01,2013-03-25 12:49:00,
2013-03-25 08:54:00,37.4,22.3,29.38,ESE,106,0.0,0.0,54,0.00,,,0.00,VWS V14.01,2013-03-25 12:54:00,
2013-03-25 08:59:00,37.6,22.0,29.38,SSE,159,2.2,2.2,53,0.00,,,0.00,VWS V14.01,2013-03-25 12:59:00,
2013-03-25 09:04:00,37.9,22.4,29.38,NE,39,0.0,0.0,53,0.00,,,0.00,VWS V14.01,2013-03-25 13:04:00,
2013-03-25 09:09:00,38.3,22.7,29.35,NE,39,0.0,0.0,53,0.00,,,0.00,VWS V14.01,2013-03-25 13:09:00,
2013-03-25 09:14:00,38.3,22.7,29.35,SSE,160,3.1,3.1,53,0.00,,,0.00,VWS V14.01,2013-03-25 13:14:00,
2013-03-25 09:19:00,38.1,22.5,29.35,SE,140,0.0,0.0,53,0.00,,,0.00,VWS V14.01,2013-03-25 13:19:00,
2013-03-25 09:24:00,38.3,23.1,29.35,ESE,123,0.0,0.0,54,0.00,,,0.00,VWS V14.01,2013-03-25 13:24:00,
2013-03-25 09:29:00,38.3,23.1,29.35,East,87,0.0,0.0,54,0.00,,,0.00,VWS V14.01,2013-03-25 13:29:00,
2013-03-25 09:34:00,39.2,24.0,29.35,East,98,0.0,0.0,54,0.00,,,0.00,VWS V14.01,2013-03-25 13:34:00,
2013-03-25 09:39:00,39.4,24.1,29.35,East,93,0.0,0.0,54,0.00,,,0.00,VWS V14.01,2013-03-25 13:39:00,
2013-03-25 09:44:00,39.7,24.0,29.35,NW,305,3.6,3.6,53,0.00,,,0.00,VWS V14.01,2013-03-25 13:44:00,
2013-03-25 09:49:00,39.7,24.0,29.35,South,180,0.0,0.0,53,0.00,,,0.00,VWS V14.01,2013-03-25 13:49:00,
2013-03-25 09:54:00,39.9,24.6,29.35,SE,132,0.0,0.0,54,0.00,,,0.00,VWS V14.01,2013-03-25 13:54:00,
2013-03-25 09:59:00,39.9,24.6,29.35,East,100,3.1,3.1,54,0.00,,,0.00,VWS V14.01,2013-03-25 13:59:00,
2013-03-25 10:04:00,39.9,24.6,29.35,East,86,0.0,0.0,54,0.00,,,0.00,VWS V14.01,2013-03-25 14:04:00,
2013-03-25 10:09:00,39.9,24.6,29.35,South,190,2.2,2.7,54,0.00,,,0.00,VWS V14.01,2013-03-25 14:09:00,
2013-03-25 10:14:00,39.9,24.6,29.35,SE,125,0.0,0.0,54,0.00,,,0.00,VWS V14.01,2013-03-25 14:14:00,
2013-03-25 10:19:00,41.0,25.2,29.32,East,94,0.0,0.0,53,0.00,,,0.00,VWS V14.01,2013-03-25 14:19:00,
2013-03-25 10:24:00,41.0,25.2,29.32,East,84,0.0,0.0,53,0.00,,,0.00,VWS V14.01,2013-03-25 14:24:00,
2013-03-25 10:29:00,41.0,25.2,29.32,East,101,3.6,3.6,53,0.00,,,0.00,VWS V14.01,2013-03-25 14:29:00,
2013-03-25 10:34:00,41.0,25.2,29.32,SE,136,3.1,3.1,53,0.00,,,0.00,VWS V14.01,2013-03-25 14:34:00,
2013-03-25 10:39:00,41.0,25.2,29.32,East,98,2.7,2.7,53,0.00,,,0.00,VWS V14.01,2013-03-25 14:39:00,
2013-03-25 10:44:00,40.8,25.5,29.32,ENE,58,0.0,0.0,54,0.00,,,0.00,VWS V14.01,2013-03-25 14:44:00,
2013-03-25 10:49:00,40.8,25.5,29.32,ENE,71,0.0,2.7,54,0.00,,,0.00,VWS V14.01,2013-03-25 14:49:00,
2013-03-25 10:54:00,40.8,25.5,29.32,East,98,0.0,0.0,54,0.00,,,0.00,VWS V14.01,2013-03-25 14:54:00,
2013-03-25 10:59:00,41.7,25.9,29.32,East,91,2.2,2.2,53,0.00,,,0.00,VWS V14.01,2013-03-25 14:59:00,
2013-03-25 11:04:00,42.4,26.1,29.32,East,79,0.0,0.0,52,0.00,,,0.00,VWS V14.01,2013-03-25 15:04:00,
2013-03-25 11:10:00,42.4,26.1,29.32,NE,38,2.2,2.2,52,0.00,,,0.00,VWS V14.01,2013-03-25 15:10:00,
2013-03-25 11:15:00,42.4,26.1,29.32,East,90,3.1,3.1,52,0.00,,,0.00,VWS V14.01,2013-03-25 15:15:00,
2013-03-25 11:20:00,42.4,26.1,29.32,ESE,122,2.2,3.6,52,0.00,,,0.00,VWS V14.01,2013-03-25 15:20:00,
2013-03-25 11:25:00,41.5,25.2,29.32,East,83,2.2,2.2,52,0.00,,,0.00,VWS V14.01,2013-03-25 15:25:00,
2013-03-25 11:30:00,41.7,25.4,29.32,ESE,112,0.0,0.0,52,0.00,,,0.00,VWS V14.01,2013-03-25 15:30:00,
2013-03-25 11:35:00,41.7,25.4,29.32,WSW,245,0.0,0.0,52,0.00,,,0.00,VWS V14.01,2013-03-25 15:35:00,
2013-03-25 11:40:00,41.7,25.4,29.32,East,96,0.0,0.0,52,0.00,,,0.00,VWS V14.01,2013-03-25 15:40:00,
2013-03-25 11:45:00,41.7,25.4,29.32,East,95,0.0,0.0,52,0.00,,,0.00,VWS V14.01,2013-03-25 15:45:00,
2013-03-25 11:50:00,42.4,25.6,29.32,NNE,30,3.1,3.1,51,0.00,,,0.00,VWS V14.01,2013-03-25 15:50:00,
2013-03-25 11:55:00,42.6,25.8,29.32,East,87,4.0,4.0,51,0.00,,,0.00,VWS V14.01,2013-03-25 15:55:00,
2013-03-25 12:00:00,42.3,24.0,29.32,East,97,2.7,2.7,48,0.00,,,0.00,VWS V14.01,2013-03-25 16:00:00,
2013-03-25 12:05:00,42.3,24.0,29.29,ESE,104,0.0,2.2,48,0.00,,,0.00,VWS V14.01,2013-03-25 16:05:00,
2013-03-25 12:10:00,42.3,24.0,29.29,ESE,114,3.1,4.0,48,0.00,,,0.00,VWS V14.01,2013-03-25 16:10:00,
2013-03-25 12:15:00,42.3,23.5,29.29,SE,128,3.1,3.6,47,0.00,,,0.00,VWS V14.01,2013-03-25 16:15:00,
2013-03-25 12:20:00,42.3,23.5,29.29,ESE,106,4.0,4.0,47,0.00,,,0.00,VWS V14.01,2013-03-25 16:20:00,
2013-03-25 12:25:00,43.0,24.1,29.29,SE,138,3.6,3.6,47,0.00,,,0.00,VWS V14.01,2013-03-25 16:25:00,
2013-03-25 12:30:00,43.2,23.8,29.29,ESE,121,4.0,4.0,46,0.00,,,0.00,VWS V14.01,2013-03-25 16:30:00,
2013-03-25 12:35:00,43.2,23.8,29.29,East,86,5.8,5.8,46,0.00,,,0.00,VWS V14.01,2013-03-25 16:35:00,
2013-03-25 12:40:00,43.3,23.4,29.29,WNW,291,0.0,3.6,45,0.00,,,0.00,VWS V14.01,2013-03-25 16:40:00,
2013-03-25 12:45:00,43.5,25.1,29.29,East,100,2.2,2.2,48,0.00,,,0.00,VWS V14.01,2013-03-25 16:45:00,
2013-03-25 12:50:00,43.9,25.5,29.29,East,101,3.1,3.1,48,0.00,,,0.00,VWS V14.01,2013-03-25 16:50:00,
2013-03-25 12:55:00,43.7,24.3,29.29,ESE,120,5.8,5.8,46,0.00,,,0.00,VWS V14.01,2013-03-25 16:55:00,
2013-03-25 13:00:00,43.7,24.3,29.29,ESE,109,0.0,0.0,46,0.00,,,0.00,VWS V14.01,2013-03-25 17:00:00,
2013-03-25 13:05:00,44.6,24.6,29.29,East,100,4.0,4.0,45,0.00,,,0.00,VWS V14.01,2013-03-25 17:05:00,
2013-03-25 13:10:00,45.3,23.6,29.26,East,97,4.9,4.9,42,0.00,,,0.00,VWS V14.01,2013-03-25 17:10:00,
2013-03-25 13:15:00,45.3,23.6,29.26,East,92,3.6,3.6,42,0.00,,,0.00,VWS V14.01,2013-03-25 17:15:00,
2013-03-25 13:20:00,45.5,22.0,29.26,ESE,104,7.6,7.6,39,0.00,,,0.00,VWS V14.01,2013-03-25 17:20:00,
2013-03-25 13:25:00,45.3,21.8,29.26,SSE,154,5.4,5.4,39,0.00,,,0.00,VWS V14.01,2013-03-25 17:25:00,
2013-03-25 13:30:00,45.3,21.8,29.26,ESE,113,3.6,3.6,39,0.00,,,0.00,VWS V14.01,2013-03-25 17:30:00,
2013-03-25 13:35:00,45.3,21.8,29.26,ENE,66,5.8,5.8,39,0.00,,,0.00,VWS V14.01,2013-03-25 17:35:00,
2013-03-25 13:40:00,45.3,21.8,29.26,SE,134,6.3,6.3,39,0.00,,,0.00,VWS V14.01,2013-03-25 17:40:00,
2013-03-25 13:45:00,45.5,22.0,29.26,SE,133,5.4,5.4,39,0.00,,,0.00,VWS V14.01,2013-03-25 17:45:00,
2013-03-25 13:50:00,45.5,22.0,29.26,SE,138,4.9,4.9,39,0.00,,,0.00,VWS V14.01,2013-03-25 17:50:00,
2013-03-25 13:55:00,46.0,22.5,29.26,East,88,0.0,0.0,39,0.00,,,0.00,VWS V14.01,2013-03-25 17:55:00,
2013-03-25 14:00:00,46.2,22.6,29.26,East,90,3.1,6.3,39,0.00,,,0.00,VWS V14.01,2013-03-25 18:00:00,
2013-03-25 14:05:00,46.0,22.5,29.26,East,90,5.4,5.4,39,0.00,,,0.00,VWS V14.01,2013-03-25 18:05:00,
2013-03-25 14:10:00,45.1,21.1,29.26,SE,134,2.7,2.7,38,0.00,,,0.00,VWS V14.01,2013-03-25 18:10:00,
2013-03-25 14:15:00,45.9,22.3,29.26,East,91,3.1,3.1,39,0.00,,,0.00,VWS V14.01,2013-03-25 18:15:00,
2013-03-25 14:20:00,45.9,22.3,29.26,East,91,3.1,3.1,39,0.00,,,0.00,VWS V14.01,2013-03-25 18:20:00,
2013-03-25 14:25:00,45.9,22.3,29.26,NE,50,0.0,2.7,39,0.00,,,0.00,VWS V14.01,2013-03-25 18:25:00,
2013-03-25 14:30:00,45.9,22.3,29.26,ESE,116,3.1,3.1,39,0.00,,,0.00,VWS V14.01,2013-03-25 18:30:00,
2013-03-25 14:35:00,44.8,21.4,29.26,ESE,122,2.7,2.7,39,0.00,,,0.00,VWS V14.01,2013-03-25 18:35:00,
2013-03-25 14:40:00,44.8,22.0,29.26,NE,47,2.7,2.7,40,0.00,,,0.00,VWS V14.01,2013-03-25 18:40:00,
2013-03-25 14:45:00,44.8,22.0,29.23,East,100,2.7,3.6,40,0.00,,,0.00,VWS V14.01,2013-03-25 18:45:00,
2013-03-25 14:50:00,44.1,24.6,29.23,NE,40,0.0,0.0,46,0.00,,,0.00,VWS V14.01,2013-03-25 18:50:00,
2013-03-25 14:55:00,43.3,25.0,29.23,East,85,3.1,3.1,48,0.00,,,0.00,VWS V14.01,2013-03-25 18:55:00,
2013-03-25 15:00:00,43.0,25.1,29.23,NE,45,0.0,0.0,49,0.00,,,0.00,VWS V14.01,2013-03-25 19:00:00,
2013-03-25 15:05:00,43.0,25.1,29.23,East,99,0.0,0.0,49,0.00,,,0.00,VWS V14.01,2013-03-25 19:05:00,
2013-03-25 15:10:00,43.0,25.1,29.21,East,84,0.0,0.0,49,0.00,,,0.00,VWS V14.01,2013-03-25 19:10:00,
2013-03-25 15:15:00,43.2,25.8,29.21,ESE,114,0.0,0.0,50,0.00,,,0.00,VWS V14.01,2013-03-25 19:15:00,
2013-03-25 15:20:00,43.2,25.8,29.21,SE,128,3.6,3.6,50,0.00,,,0.00,VWS V14.01,2013-03-25 19:20:00,
2013-03-25 15:25:00,42.8,25.5,29.21,ESE,119,0.0,0.0,50,0.00,,,0.00,VWS V14.01,2013-03-25 19:25:00,
2013-03-25 15:30:00,42.4,25.1,29.21,SE,146,2.7,2.7,50,0.00,,,0.00,VWS V14.01,2013-03-25 19:30:00,
2013-03-25 15:35:00,42.4,25.1,29.21,SE,129,3.1,3.1,50,0.00,,,0.00,VWS V14.01,2013-03-25 19:35:00,
2013-03-25 15:40:00,42.4,25.1,29.21,ESE,103,3.6,3.6,50,0.00,,,0.00,VWS V14.01,2013-03-25 19:40:00,
2013-03-25 15:45:00,41.7,24.9,29.18,NE,38,0.0,0.0,51,0.00,,,0.00,VWS V14.01,2013-03-25 19:45:00,
2013-03-25 15:50:00,41.7,24.9,29.18,East,99,2.7,2.7,51,0.00,,,0.00,VWS V14.01,2013-03-25 19:50:00,
2013-03-25 15:55:00,41.4,25.1,29.18,WNW,300,2.7,2.7,52,0.00,,,0.00,VWS V14.01,2013-03-25 19:55:00,
2013-03-25 16:00:00,41.0,24.7,29.18,NW,319,2.7,2.7,52,0.00,,,0.00,VWS V14.01,2013-03-25 20:00:00,
2013-03-25 16:05:00,41.0,24.7,29.18,SE,141,0.0,0.0,52,0.00,,,0.00,VWS V14.01,2013-03-25 20:05:00,
2013-03-25 16:10:00,41.2,24.9,29.18,ENE,66,0.0,0.0,52,0.00,,,0.00,VWS V14.01,2013-03-25 20:10:00,
2013-03-25 16:15:00,41.2,24.9,29.18,ENE,72,0.0,0.0,52,0.00,,,0.00,VWS V14.01,2013-03-25 20:15:00,
2013-03-25 16:20:00,41.0,24.3,29.18,East,81,3.6,3.6,51,0.00,,,0.00,VWS V14.01,2013-03-25 20:20:00,
2013-03-25 16:25:00,40.6,23.9,29.18,SE,127,0.0,0.0,51,0.00,,,0.00,VWS V14.01,2013-03-25 20:25:00,
2013-03-25 16:30:00,40.6,23.9,29.21,SE,127,0.0,0.0,51,0.00,,,0.00,VWS V14.01,2013-03-25 20:30:00,
2013-03-25 16:35:00,40.6,23.9,29.21,SE,127,0.0,0.0,51,0.00,,,0.00,VWS V14.01,2013-03-25 20:35:00,
2013-03-25 16:40:00,40.6,23.9,29.21,ENE,65,0.0,0.0,51,0.00,,,0.00,VWS V14.01,2013-03-25 20:40:00,
2013-03-25 16:45:00,40.5,24.2,29.18,ENE,65,0.0,0.0,52,0.00,,,0.00,VWS V14.01,2013-03-25 20:45:00,
2013-03-25 16:50:00,40.3,24.1,29.18,ESE,103,4.0,4.0,52,0.00,,,0.00,VWS V14.01,2013-03-25 20:50:00,
2013-03-25 16:55:00,39.9,24.2,29.18,ESE,108,2.7,2.7,53,0.00,,,0.00,VWS V14.01,2013-03-25 20:55:00,
2013-03-25 17:00:00,39.7,23.6,29.18,SSE,165,0.0,0.0,52,0.00,,,0.00,VWS V14.01,2013-03-25 21:00:00,
2013-03-25 17:05:00,39.7,23.6,29.18,SE,141,4.0,4.0,52,0.00,,,0.00,VWS V14.01,2013-03-25 21:05:00,
2013-03-25 17:10:00,39.7,23.6,29.18,SE,130,5.8,5.8,52,0.00,,,0.00,VWS V14.01,2013-03-25 21:10:00,
2013-03-25 17:15:00,39.7,23.6,29.18,SSE,161,0.0,0.0,52,0.00,,,0.00,VWS V14.01,2013-03-25 21:15:00,
2013-03-25 17:20:00,39.7,23.6,29.18,ENE,76,3.6,3.6,52,0.00,,,0.00,VWS V14.01,2013-03-25 21:20:00,
2013-03-25 17:25:00,39.9,23.3,29.18,East,92,0.0,0.0,51,0.00,,,0.00,VWS V14.01,2013-03-25 21:25:00,
2013-03-25 17:30:00,39.9,23.3,29.18,East,92,0.0,0.0,51,0.00,,,0.00,VWS V14.01,2013-03-25 21:30:00,
2013-03-25 17:35:00,39.9,23.3,29.18,SE,129,3.1,3.1,51,0.00,,,0.00,VWS V14.01,2013-03-25 21:35:00,
2013-03-25 17:40:00,39.9,23.3,29.21,SE,133,3.1,3.1,51,0.00,,,0.00,VWS V14.01,2013-03-25 21:40:00,
2013-03-25 17:45:00,39.9,23.7,29.21,ENE,78,0.0,0.0,52,0.00,,,0.00,VWS V14.01,2013-03-25 21:45:00,
2013-03-25 17:50:00,39.7,23.6,29.21,ESE,123,3.6,3.6,52,0.00,,,0.00,VWS V14.01,2013-03-25 21:50:00,
2013-03-25 17:55:00,39.7,23.6,29.21,East,82,3.6,3.6,52,0.00,,,0.00,VWS V14.01,2013-03-25 21:55:00,
2013-03-25 18:00:00,39.7,23.6,29.21,SE,127,0.0,0.0,52,0.00,,,0.00,VWS V14.01,2013-03-25 22:00:00,
2013-03-25 18:05:00,39.4,23.7,29.21,SE,127,0.0,0.0,53,0.00,,,0.00,VWS V14.01,2013-03-25 22:05:00,
2013-03-25 18:10:00,39.4,23.7,29.21,NNE,14,0.0,0.0,53,0.00,,,0.00,VWS V14.01,2013-03-25 22:10:00,
2013-03-25 18:15:00,39.4,23.7,29.21,SE,131,5.8,5.8,53,0.00,,,0.00,VWS V14.01,2013-03-25 22:15:00,
2013-03-25 18:20:00,39.0,23.8,29.21,SE,131,5.8,5.8,54,0.00,,,0.00,VWS V14.01,2013-03-25 22:20:00,
2013-03-25 18:25:00,39.0,23.8,29.21,NE,39,0.0,0.0,54,0.00,,,0.00,VWS V14.01,2013-03-25 22:25:00,
2013-03-25 18:30:00,38.8,23.6,29.21,SE,130,0.0,0.0,54,0.00,,,0.00,VWS V14.01,2013-03-25 22:30:00,
2013-03-25 18:35:00,38.7,23.5,29.21,ESE,109,5.8,5.8,54,0.00,,,0.00,VWS V14.01,2013-03-25 22:35:00,
2013-03-25 18:40:00,38.7,23.5,29.21,SSE,159,2.2,2.2,54,0.00,,,0.00,VWS V14.01,2013-03-25 22:40:00,
2013-03-25 18:45:00,38.7,23.9,29.21,ENE,67,0.0,0.0,55,0.00,,,0.00,VWS V14.01,2013-03-25 22:45:00,
2013-03-25 18:50:00,38.7,23.9,29.21,ENE,65,5.4,5.4,55,0.00,,,0.00,VWS V14.01,2013-03-25 22:50:00,
2013-03-25 18:55:00,38.5,24.2,29.21,ENE,65,5.4,5.4,56,0.00,,,0.00,VWS V14.01,2013-03-25 22:55:00,
2013-03-25 19:00:00,38.3,24.0,29.21,North,357,0.0,0.0,56,0.00,,,0.00,VWS V14.01,2013-03-25 23:00:00,
2013-03-25 19:05:00,38.1,24.2,29.21,South,176,0.0,0.0,57,0.00,,,0.00,VWS V14.01,2013-03-25 23:05:00,
2013-03-25 19:10:00,38.1,24.7,29.21,ENE,70,2.7,2.7,58,0.00,,,0.00,VWS V14.01,2013-03-25 23:10:00,
2013-03-25 19:15:00,38.1,24.7,29.21,NE,38,3.1,3.1,58,0.00,,,0.00,VWS V14.01,2013-03-25 23:15:00,
2013-03-25 19:20:00,38.1,24.7,29.21,SSE,160,0.0,0.0,58,0.00,,,0.00,VWS V14.01,2013-03-25 23:20:00,
2013-03-25 19:25:00,38.1,24.7,29.21,ENE,71,0.0,0.0,58,0.00,,,0.00,VWS V14.01,2013-03-25 23:25:00,
2013-03-25 19:30:00,37.9,25.3,29.21,NNE,15,2.7,2.7,60,0.00,,,0.00,VWS V14.01,2013-03-25 23:30:00,
2013-03-25 19:35:00,37.9,25.3,29.21,NNE,15,2.7,2.7,60,0.00,,,0.00,VWS V14.01,2013-03-25 23:35:00,
2013-03-25 19:40:00,37.9,25.3,29.21,NE,54,0.0,0.0,60,0.00,,,0.00,VWS V14.01,2013-03-25 23:40:00,
2013-03-25 19:45:00,37.9,25.3,29.21,NE,53,0.0,0.0,60,0.00,,,0.00,VWS V14.01,2013-03-25 23:45:00,
2013-03-25 19:50:00,37.9,25.3,29.21,NNW,339,0.0,0.0,60,0.00,,,0.00,VWS V14.01,2013-03-25 23:50:00,
2013-03-25 19:55:00,37.9,25.3,29.21,ESE,105,0.0,0.0,60,0.00,,,0.00,VWS V14.01,2013-03-25 23:55:00,
2013-03-25 20:00:00,37.8,25.1,29.21,West,276,0.0,0.0,60,0.00,,,0.00,VWS V14.01,2013-03-26 00:00:00,
2013-03-25 20:05:00,37.8,25.1,29.21,ENE,58,0.0,0.0,60,0.00,,,0.00,VWS V14.01,2013-03-26 00:05:00,
2013-03-25 20:10:00,37.8,25.1,29.21,East,95,2.2,2.2,60,0.00,,,0.00,VWS V14.01,2013-03-26 00:10:00,
2013-03-25 20:15:00,37.8,25.1,29.23,SE,139,0.0,0.0,60,0.00,,,0.00,VWS V14.01,2013-03-26 00:15:00,
2013-03-25 20:20:00,37.6,24.6,29.23,East,89,2.7,2.7,59,0.00,,,0.00,VWS V14.01,2013-03-26 00:20:00,
2013-03-25 20:25:00,37.4,24.4,29.23,SSW,194,0.0,0.0,59,0.00,,,0.00,VWS V14.01,2013-03-26 00:25:00,
2013-03-25 20:30:00,37.4,24.4,29.23,WNW,282,0.0,0.0,59,0.00,,,0.00,VWS V14.01,2013-03-26 00:30:00,
2013-03-25 20:35:00,37.4,24.4,29.23,ESE,112,0.0,0.0,59,0.00,,,0.00,VWS V14.01,2013-03-26 00:35:00,
2013-03-25 20:40:00,37.4,24.4,29.23,SSE,163,0.0,0.0,59,0.00,,,0.00,VWS V14.01,2013-03-26 00:40:00,
2013-03-25 20:45:00,37.2,25.0,29.23,SSE,163,0.0,0.0,61,0.00,,,0.00,VWS V14.01,2013-03-26 00:45:00,
2013-03-25 20:50:00,37.0,24.9,29.23,SSE,151,0.0,2.2,61,0.00,,,0.00,VWS V14.01,2013-03-26 00:50:00,
2013-03-25 20:55:00,37.0,24.9,29.23,ESE,102,0.0,0.0,61,0.00,,,0.00,VWS V14.01,2013-03-26 00:55:00,
2013-03-25 21:00:00,37.0,24.9,29.23,NE,35,0.0,0.0,61,0.00,,,0.00,VWS V14.01,2013-03-26 01:00:00,
2013-03-25 21:05:00,37.0,24.9,29.23,SSE,147,0.0,0.0,61,0.00,,,0.00,VWS V14.01,2013-03-26 01:05:00,
2013-03-25 21:10:00,37.0,25.2,29.23,WSW,256,0.0,0.0,62,0.00,,,0.00,VWS V14.01,2013-03-26 01:10:00,
2013-03-25 21:15:00,37.0,25.2,29.23,WSW,256,0.0,0.0,62,0.00,,,0.00,VWS V14.01,2013-03-26 01:15:00,
2013-03-25 21:20:00,36.9,25.5,29.23,SSE,167,0.0,0.0,63,0.00,,,0.00,VWS V14.01,2013-03-26 01:20:00,
2013-03-25 21:25:00,36.9,25.5,29.23,NNE,20,0.0,0.0,63,0.00,,,0.00,VWS V14.01,2013-03-26 01:25:00,
2013-03-25 21:29:00,36.9,25.5,29.23,SSE,154,0.0,0.0,63,0.00,,,0.00,VWS V14.01,2013-03-26 01:29:00,
2013-03-25 21:34:00,36.9,25.5,29.23,SW,234,0.0,0.0,63,0.00,,,0.00,VWS V14.01,2013-03-26 01:34:00,
2013-03-25 21:39:00,36.9,25.5,29.23,SW,234,0.0,0.0,63,0.00,,,0.00,VWS V14.01,2013-03-26 01:39:00,
2013-03-25 21:44:00,36.9,25.5,29.23,WNW,296,0.0,0.0,63,0.00,,,0.00,VWS V14.01,2013-03-26 01:44:00,
2013-03-25 21:49:00,36.9,25.5,29.23,ENE,67,0.0,0.0,63,0.00,,,0.00,VWS V14.01,2013-03-26 01:49:00,
2013-03-25 21:54:00,36.9,25.5,29.23,ENE,67,0.0,0.0,63,0.00,,,0.00,VWS V14.01,2013-03-26 01:54:00,
2013-03-25 21:59:00,36.9,25.5,29.23,NE,55,0.0,0.0,63,0.00,,,0.00,VWS V14.01,2013-03-26 01:59:00,
2013-03-25 22:04:00,36.9,25.5,29.23,NE,55,0.0,0.0,63,0.00,,,0.00,VWS V14.01,2013-03-26 02:04:00,
2013-03-25 22:09:00,36.7,25.3,29.23,ENE,68,0.0,0.0,63,0.00,,,0.00,VWS V14.01,2013-03-26 02:09:00,
2013-03-25 22:14:00,36.7,25.3,29.23,ENE,68,0.0,0.0,63,0.00,,,0.00,VWS V14.01,2013-03-26 02:14:00,
2013-03-25 22:19:00,36.7,25.3,29.23,ENE,68,0.0,0.0,63,0.00,,,0.00,VWS V14.01,2013-03-26 02:19:00,
2013-03-25 22:24:00,36.7,25.3,29.23,NW,316,0.0,0.0,63,0.00,,,0.00,VWS V14.01,2013-03-26 02:24:00,
2013-03-25 22:29:00,36.7,25.3,29.23,North,350,0.0,0.0,63,0.00,,,0.00,VWS V14.01,2013-03-26 02:29:00,
2013-03-25 22:34:00,36.5,25.5,29.23,North,353,0.0,0.0,64,0.00,,,0.00,VWS V14.01,2013-03-26 02:34:00,
2013-03-25 22:39:00,36.5,25.5,29.23,NNE,12,0.0,0.0,64,0.00,,,0.00,VWS V14.01,2013-03-26 02:39:00,
2013-03-25 22:44:00,36.5,25.5,29.23,WSW,238,0.0,0.0,64,0.00,,,0.00,VWS V14.01,2013-03-26 02:44:00,
2013-03-25 22:49:00,36.5,25.9,29.23,SSE,165,0.0,0.0,65,0.00,,,0.00,VWS V14.01,2013-03-26 02:49:00,
2013-03-25 22:54:00,36.3,25.7,29.23,SE,146,0.0,0.0,65,0.00,,,0.00,VWS V14.01,2013-03-26 02:54:00,
2013-03-25 22:59:00,36.3,25.7,29.23,SW,228,0.0,0.0,65,0.00,,,0.00,VWS V14.01,2013-03-26 02:59:00,
2013-03-25 23:04:00,36.3,25.7,29.23,WSW,243,0.0,0.0,65,0.00,,,0.00,VWS V14.01,2013-03-26 03:04:00,
2013-03-25 23:09:00,36.3,25.7,29.23,NE,46,0.0,0.0,65,0.00,,,0.00,VWS V14.01,2013-03-26 03:09:00,
2013-03-25 23:14:00,36.3,25.7,29.23,NNW,331,0.0,0.0,65,0.00,,,0.00,VWS V14.01,2013-03-26 03:14:00,
2013-03-25 23:19:00,36.3,26.1,29.23,NNE,22,0.0,0.0,66,0.00,,,0.00,VWS V14.01,2013-03-26 03:19:00,
2013-03-25 23:24:00,36.3,26.1,29.23,West,274,0.0,0.0,66,0.00,,,0.00,VWS V14.01,2013-03-26 03:24:00,
2013-03-25 23:29:00,36.3,26.1,29.23,NNE,22,0.0,0.0,66,0.00,,,0.00,VWS V14.01,2013-03-26 03:29:00,
2013-03-25 23:34:00,36.3,26.1,29.23,SSE,149,0.0,0.0,66,0.00,,,0.00,VWS V14.01,2013-03-26 03:34:00,
2013-03-25 23:39:00,36.3,26.1,29.23,SSE,156,0.0,0.0,66,0.00,,,0.00,VWS V14.01,2013-03-26 03:39:00,
2013-03-25 23:44:00,36.3,26.1,29.23,North,2,0.0,0.0,66,0.00,,,0.00,VWS V14.01,2013-03-26 03:44:00,
2013-03-25 23:49:00,36.3,26.1,29.21,NNE,26,3.6,3.6,66,0.00,,,0.00,VWS V14.01,2013-03-26 03:49:00,
2013-03-25 23:54:00,36.3,25.7,29.21,NW,308,0.0,0.0,65,0.00,,,0.00,VWS V14.01,2013-03-26 03:54:00,
2013-03-25 23:59:00,36.5,25.9,29.21,WNW,303,0.0,0.0,65,0.00,,,0.00,VWS V14.01,2013-03-26 03:59:00,